| time (UTC) | temp F | wind direction | speed knots | gust knots | rain 1hr in | rain 24hr in | rain mn in | humidity % | barometer mb |
| 20260906204547 | 91 | 178 | 20.9 | 30.4 | 0.00 | 0.01 | 0.01 | 44 | 1014.9 |
| 20260906204024 | 91 | 157 | 20.0 | 32.2 | 0.00 | 0.01 | 0.01 | 45 | 1014.9 |
| 20260906203524 | 91 | 178 | 18.2 | 32.2 | 0.00 | 0.01 | 0.01 | 45 | 1015.1 |
| 20260906203057 | 91 | 166 | 20.0 | 27.8 | 0.00 | 0.01 | 0.01 | 46 | 1014.9 |
| 20260906202525 | 91 | 193 | 20.0 | 31.3 | 0.00 | 0.01 | 0.01 | 45 | 1015.0 |
| 20260906202026 | 91 | 183 | 17.4 | 31.3 | 0.00 | 0.01 | 0.01 | 46 | 1015.1 |
| 20260906201545 | 90 | 173 | 19.1 | 29.5 | 0.00 | 0.01 | 0.01 | 47 | 1015.1 |
| 20260906201026 | 90 | 192 | 20.0 | 29.5 | 0.00 | 0.01 | 0.01 | 48 | 1015.3 |
| 20260906200526 | 90 | 146 | 16.5 | 26.1 | 0.00 | 0.01 | 0.01 | 49 | 1015.4 |
| 20260906200050 | 90 | 184 | 17.4 | 28.7 | 0.00 | 0.01 | 0.01 | 49 | 1015.6 |
| 20260906195525 | 90 | 162 | 18.2 | 28.7 | 0.00 | 0.01 | 0.01 | 49 | 1015.7 |
| 20260906195024 | 90 | 168 | 16.5 | 26.9 | 0.00 | 0.01 | 0.01 | 49 | 1015.7 |
| 20260906194545 | 89 | 161 | 18.2 | 28.7 | 0.00 | 0.01 | 0.01 | 50 | 1015.6 |
| 20260906194025 | 89 | 182 | 20.9 | 30.4 | 0.00 | 0.01 | 0.01 | 50 | 1015.8 |
| 20260906193523 | 89 | 186 | 19.1 | 31.3 | 0.00 | 0.01 | 0.01 | 50 | 1015.9 |
| 20260906193104 | 89 | 169 | 20.9 | 31.3 | 0.00 | 0.01 | 0.01 | 50 | 1016.0 |
| 20260906192525 | 89 | 172 | 16.5 | 26.9 | 0.00 | 0.01 | 0.01 | 50 | 1016.0 |
| 20260906192026 | 89 | 194 | 16.5 | 25.2 | 0.00 | 0.01 | 0.01 | 49 | 1016.1 |
| 20260906191559 | 89 | 190 | 18.2 | 25.2 | 0.00 | 0.01 | 0.01 | 48 | 1016.2 |
| 20260906191023 | 90 | 209 | 16.5 | 28.7 | 0.00 | 0.01 | 0.01 | 48 | 1016.0 |
| 20260906190524 | 89 | 185 | 19.1 | 28.7 | 0.00 | 0.01 | 0.01 | 49 | 1016.0 |
| 20260906190046 | 89 | 210 | 18.2 | 27.8 | 0.00 | 0.01 | 0.01 | 49 | 1016.1 |
| 20260906185526 | 89 | 191 | 15.6 | 28.7 | 0.00 | 0.01 | 0.01 | 49 | 1016.1 |
| 20260906185024 | 89 | 191 | 19.1 | 28.7 | 0.00 | 0.01 | 0.01 | 49 | 1016.2 |
| 20260906184548 | 89 | 169 | 13.9 | 24.3 | 0.00 | 0.01 | 0.01 | 50 | 1016.2 |
| 20260906184024 | 89 | 186 | 15.6 | 27.8 | 0.00 | 0.01 | 0.01 | 50 | 1016.4 |
| 20260906183526 | 88 | 186 | 14.8 | 27.8 | 0.00 | 0.01 | 0.01 | 52 | 1016.4 |
| 20260906183051 | 87 | 172 | 14.8 | 24.3 | 0.00 | 0.01 | 0.01 | 52 | 1016.6 |
| 20260906182526 | 88 | 167 | 15.6 | 25.2 | 0.00 | 0.01 | 0.01 | 52 | 1016.6 |
| 20260906182025 | 87 | 170 | 13.9 | 25.2 | 0.00 | 0.01 | 0.01 | 53 | 1016.7 |
| 20260906181610 | 87 | 188 | 15.6 | 23.5 | 0.00 | 0.01 | 0.01 | 52 | 1016.8 |
| 20260906181024 | 87 | 188 | 13.0 | 23.5 | 0.00 | 0.01 | 0.01 | 54 | 1016.9 |
| 20260906180524 | 86 | 209 | 13.9 | 23.5 | 0.00 | 0.01 | 0.01 | 55 | 1017.1 |
| 20260906180048 | 86 | 192 | 13.0 | 24.3 | 0.00 | 0.01 | 0.01 | 56 | 1017.1 |
| 20260906175525 | 86 | 163 | 16.5 | 25.2 | 0.00 | 0.01 | 0.01 | 57 | 1017.1 |
| 20260906175026 | 86 | 194 | 15.6 | 25.2 | 0.00 | 0.01 | 0.01 | 57 | 1017.2 |
| 20260906174549 | 85 | 196 | 15.6 | 25.2 | 0.00 | 0.01 | 0.01 | 58 | 1017.3 |
| 20260906174029 | 85 | 155 | 15.6 | 25.2 | 0.00 | 0.01 | 0.01 | 58 | 1017.4 |
| 20260906173529 | 85 | 183 | 14.8 | 26.1 | 0.00 | 0.01 | 0.01 | 57 | 1017.5 |
| 20260906173051 | 84 | 166 | 14.8 | 26.1 | 0.00 | 0.01 | 0.01 | 57 | 1017.5 |
| 20260906172526 | 84 | 184 | 16.5 | 24.3 | 0.00 | 0.01 | 0.01 | 57 | 1017.5 |
| 20260906172025 | 84 | 163 | 16.5 | 25.2 | 0.00 | 0.01 | 0.01 | 57 | 1017.6 |
| 20260906171600 | 84 | 158 | 17.4 | 25.2 | 0.00 | 0.01 | 0.01 | 59 | 1017.7 |
| 20260906171025 | 84 | 171 | 17.4 | 26.1 | 0.00 | 0.01 | 0.01 | 59 | 1017.8 |
| 20260906170524 | 83 | 172 | 18.2 | 26.1 | 0.00 | 0.01 | 0.01 | 59 | 1018.0 |
| 20260906170055 | 83 | 147 | 17.4 | 26.1 | 0.00 | 0.01 | 0.01 | 60 | 1017.9 |
| 20260906165524 | 83 | 175 | 18.2 | 25.2 | 0.00 | 0.01 | 0.01 | 61 | 1018.0 |
| 20260906165029 | 82 | 163 | 16.5 | 24.3 | 0.00 | 0.01 | 0.01 | 62 | 1018.1 |
| 20260906164554 | 82 | 143 | 16.5 | 21.7 | 0.00 | 0.01 | 0.01 | 63 | 1018.1 |
| 20260906164023 | 81 | 148 | 13.9 | 22.6 | 0.00 | 0.01 | 0.01 | 65 | 1018.2 |
| 20260906163524 | 81 | 147 | 14.8 | 23.5 | 0.00 | 0.01 | 0.01 | 65 | 1018.3 |
| 20260906163056 | 81 | 151 | 16.5 | 24.3 | 0.00 | 0.01 | 0.01 | 66 | 1018.3 |
| 20260906162528 | 80 | 132 | 15.6 | 24.3 | 0.00 | 0.01 | 0.01 | 68 | 1018.2 |
| 20260906162024 | 80 | 120 | 15.6 | 20.0 | 0.00 | 0.01 | 0.01 | 70 | 1018.2 |
| 20260906161546 | 79 | 134 | 14.8 | 20.0 | 0.00 | 0.01 | 0.01 | 71 | 1018.3 |
| 20260906161025 | 79 | 143 | 14.8 | 20.0 | 0.00 | 0.01 | 0.01 | 72 | 1018.3 |
| 20260906160525 | 78 | 140 | 13.0 | 21.7 | 0.00 | 0.01 | 0.01 | 74 | 1018.3 |
| 20260906160045 | 78 | 123 | 13.9 | 21.7 | 0.00 | 0.01 | 0.01 | 75 | 1018.2 |
| 20260906155523 | 77 | 144 | 13.9 | 20.0 | 0.00 | 0.01 | 0.01 | 76 | 1018.1 |
| 20260906155022 | 77 | 138 | 14.8 | 20.0 | 0.00 | 0.01 | 0.01 | 77 | 1018.0 |
| 20260906154552 | 77 | 132 | 14.8 | 20.0 | 0.00 | 0.01 | 0.01 | 78 | 1018.0 |
| 20260906154027 | 76 | 125 | 13.9 | 19.1 | 0.00 | 0.01 | 0.01 | 80 | 1018.1 |
| 20260906153525 | 75 | 118 | 14.8 | 20.0 | 0.00 | 0.01 | 0.01 | 80 | 1018.1 |
| 20260906153046 | 75 | 143 | 13.9 | 20.0 | 0.00 | 0.01 | 0.01 | 82 | 1018.2 |
| 20260906152526 | 73 | 142 | 15.6 | 20.0 | 0.00 | 0.01 | 0.01 | 83 | 1018.4 |
| 20260906152024 | 73 | 129 | 14.8 | 20.0 | 0.00 | 0.01 | 0.01 | 83 | 1018.4 |
| 20260906151552 | 73 | 132 | 13.9 | 20.0 | 0.00 | 0.01 | 0.01 | 84 | 1018.5 |
| 20260906151023 | 73 | 133 | 13.9 | 20.0 | 0.00 | 0.01 | 0.01 | 85 | 1018.4 |
| 20260906150525 | 73 | 143 | 15.6 | 20.0 | 0.00 | 0.01 | 0.01 | 87 | 1018.5 |
| 20260906150052 | 72 | 146 | 14.8 | 20.0 | 0.00 | 0.01 | 0.01 | 88 | 1018.4 |
| 20260906145524 | 71 | 138 | 15.6 | 20.9 | 0.00 | 0.01 | 0.01 | 90 | 1018.4 |
| 20260906145027 | 71 | 141 | 16.5 | 20.9 | 0.00 | 0.01 | 0.01 | 92 | 1018.4 |
| 20260906144605 | 70 | 143 | 15.6 | 20.9 | 0.00 | 0.01 | 0.01 | 93 | 1018.4 |
| 20260906144024 | 69 | 134 | 13.0 | 17.4 | 0.00 | 0.01 | 0.01 | 94 | 1018.4 |
| 20260906143523 | 69 | 135 | 12.2 | 15.6 | 0.00 | 0.01 | 0.01 | 94 | 1018.4 |
| 20260906143050 | 69 | 128 | 10.4 | 13.9 | 0.00 | 0.01 | 0.01 | 95 | 1018.4 |
| 20260906142524 | 68 | 134 | 10.4 | 13.9 | 0.00 | 0.01 | 0.01 | 95 | 1018.3 |
| 20260906142025 | 68 | 129 | 9.6 | 13.0 | 0.00 | 0.01 | 0.01 | 96 | 1018.3 |
| 20260906141543 | 68 | 138 | 9.6 | 13.0 | 0.00 | 0.01 | 0.01 | 95 | 1018.3 |
| 20260906141024 | 67 | 142 | 9.6 | 13.0 | 0.00 | 0.01 | 0.01 | 95 | 1018.3 |
| 20260906140520 | 67 | 142 | 8.7 | 12.2 | 0.00 | 0.01 | 0.01 | 96 | 1018.2 |
| 20260906140049 | 67 | 127 | 8.7 | 13.9 | 0.00 | 0.01 | 0.01 | 96 | 1018.2 |
| 20260906135521 | 67 | 113 | 9.6 | 13.9 | 0.00 | 0.01 | 0.01 | 96 | 1018.1 |
| 20260906135023 | 66 | 123 | 9.6 | 13.9 | 0.00 | 0.01 | 0.01 | 95 | 1018.0 |
| 20260906134545 | 66 | 115 | 10.4 | 13.9 | 0.00 | 0.01 | 0.01 | 95 | 1017.9 |
| 20260906134024 | 66 | 115 | 9.6 | 13.0 | 0.00 | 0.01 | 0.01 | 95 | 1017.8 |
| 20260906133523 | 66 | 113 | 9.6 | 13.0 | 0.00 | 0.01 | 0.01 | 95 | 1017.8 |
| 20260906133103 | 66 | 122 | 9.6 | 12.2 | 0.00 | 0.01 | 0.01 | 95 | 1017.6 |
| 20260906132523 | 66 | 117 | 8.7 | 12.2 | 0.00 | 0.01 | 0.01 | 95 | 1017.7 |
| 20260906132021 | 66 | 121 | 7.8 | 11.3 | 0.00 | 0.01 | 0.01 | 95 | 1017.7 |
| 20260906131542 | 66 | 105 | 8.7 | 12.2 | 0.00 | 0.01 | 0.01 | 95 | 1017.6 |
| 20260906131024 | 65 | 113 | 8.7 | 12.2 | 0.00 | 0.01 | 0.01 | 95 | 1017.6 |
| 20260906130524 | 65 | 110 | 7.0 | 9.6 | 0.00 | 0.01 | 0.01 | 95 | 1017.6 |
| 20260906125523 | 65 | 107 | 7.0 | 11.3 | 0.00 | 0.01 | 0.01 | 95 | 1017.7 |
| 20260906125025 | 65 | 118 | 7.8 | 11.3 | 0.00 | 0.01 | 0.01 | 95 | 1017.7 |
| 20260906124547 | 65 | 98 | 7.0 | 11.3 | 0.00 | 0.01 | 0.01 | 95 | 1017.8 |
| 20260906124025 | 65 | 114 | 7.8 | 11.3 | 0.00 | 0.01 | 0.01 | 95 | 1017.8 |
| 20260906123523 | 65 | 111 | 8.7 | 13.0 | 0.00 | 0.01 | 0.01 | 95 | 1017.8 |
| 20260906123046 | 65 | 110 | 9.6 | 13.0 | 0.00 | 0.01 | 0.01 | 94 | 1017.7 |
| 20260906122524 | 65 | 110 | 7.8 | 12.2 | 0.00 | 0.01 | 0.01 | 94 | 1017.7 |
| 20260906122024 | 65 | 109 | 8.7 | 13.0 | 0.00 | 0.01 | 0.01 | 94 | 1017.6 |
| 20260906121551 | 65 | 113 | 9.6 | 13.0 | 0.00 | 0.01 | 0.01 | 94 | 1017.6 |
| 20260906121026 | 65 | 115 | 9.6 | 14.8 | 0.00 | 0.01 | 0.01 | 94 | 1017.5 |
| 20260906120524 | 65 | 98 | 10.4 | 16.5 | 0.00 | 0.01 | 0.01 | 94 | 1017.6 |
| 20260906120050 | 65 | 105 | 12.2 | 16.5 | 0.00 | 0.01 | 0.01 | 94 | 1017.6 |
| 20260906115525 | 65 | 115 | 11.3 | 14.8 | 0.00 | 0.01 | 0.01 | 94 | 1017.7 |
| 20260906115024 | 65 | 103 | 12.2 | 14.8 | 0.00 | 0.01 | 0.01 | 93 | 1017.8 |
| 20260906114557 | 65 | 104 | 9.6 | 13.0 | 0.00 | 0.01 | 0.01 | 93 | 1017.7 |
| 20260906114025 | 65 | 105 | 9.6 | 13.9 | 0.00 | 0.01 | 0.01 | 93 | 1017.7 |
| 20260906113524 | 65 | 111 | 10.4 | 13.9 | 0.00 | 0.01 | 0.01 | 93 | 1017.7 |
| 20260906113047 | 65 | 105 | 9.6 | 13.9 | 0.00 | 0.01 | 0.01 | 93 | 1017.7 |
| 20260906112523 | 64 | 103 | 9.6 | 15.6 | 0.00 | 0.01 | 0.01 | 92 | 1017.8 |
| 20260906112027 | 64 | 88 | 12.2 | 16.5 | 0.00 | 0.01 | 0.01 | 92 | 1017.7 |
| 20260906111551 | 64 | 95 | 10.4 | 16.5 | 0.00 | 0.01 | 0.01 | 92 | 1017.7 |
| 20260906111024 | 65 | 91 | 12.2 | 15.6 | 0.00 | 0.01 | 0.01 | 92 | 1017.7 |
| 20260906110524 | 65 | 108 | 8.7 | 11.3 | 0.00 | 0.01 | 0.01 | 92 | 1017.7 |
| 20260906110045 | 65 | 100 | 7.8 | 11.3 | 0.00 | 0.01 | 0.01 | 92 | 1017.6 |
| 20260906105523 | 65 | 82 | 7.8 | 11.3 | 0.00 | 0.01 | 0.01 | 91 | 1017.6 |
| 20260906105025 | 65 | 77 | 7.8 | 11.3 | 0.00 | 0.01 | 0.01 | 91 | 1017.6 |
| 20260906104550 | 65 | 81 | 8.7 | 11.3 | 0.00 | 0.01 | 0.01 | 91 | 1017.5 |
| 20260906104023 | 65 | 87 | 7.8 | 12.2 | 0.00 | 0.01 | 0.01 | 91 | 1017.5 |
| 20260906103525 | 65 | 87 | 9.6 | 12.2 | 0.00 | 0.01 | 0.01 | 91 | 1017.5 |
| 20260906103049 | 65 | 85 | 7.8 | 11.3 | 0.00 | 0.01 | 0.01 | 91 | 1017.5 |
| 20260906102524 | 66 | 80 | 8.7 | 10.4 | 0.00 | 0.01 | 0.01 | 90 | 1017.5 |
| 20260906102024 | 66 | 55 | 6.1 | 10.4 | 0.00 | 0.01 | 0.01 | 90 | 1017.5 |
| 20260906101547 | 66 | 80 | 7.0 | 11.3 | 0.00 | 0.01 | 0.01 | 90 | 1017.5 |
| 20260906101024 | 66 | 71 | 8.7 | 11.3 | 0.00 | 0.01 | 0.01 | 90 | 1017.6 |
| 20260906100524 | 66 | 69 | 7.0 | 10.4 | 0.00 | 0.01 | 0.01 | 89 | 1017.5 |
| 20260906100044 | 66 | 67 | 4.3 | 8.7 | 0.00 | 0.01 | 0.01 | 89 | 1017.3 |
| 20260906095526 | 66 | 65 | 7.0 | 8.7 | 0.00 | 0.01 | 0.01 | 89 | 1017.3 |
| 20260906095024 | 66 | 72 | 7.0 | 8.7 | 0.00 | 0.01 | 0.01 | 89 | 1017.2 |
| 20260906094607 | 66 | 60 | 6.1 | 8.7 | 0.00 | 0.01 | 0.01 | 88 | 1017.3 |
| 20260906094030 | 66 | 71 | 6.1 | 8.7 | 0.00 | 0.01 | 0.01 | 88 | 1017.3 |
| 20260906093523 | 66 | 67 | 4.3 | 8.7 | 0.00 | 0.01 | 0.01 | 87 | 1017.4 |
| 20260906093119 | 66 | 61 | 6.1 | 11.3 | 0.01 | 0.01 | 0.01 | 87 | 1017.4 |
| 20260906092524 | 66 | 57 | 6.1 | 11.3 | 0.01 | 0.01 | 0.01 | 87 | 1017.4 |
| 20260906092026 | 66 | 38 | 6.1 | 9.6 | 0.01 | 0.01 | 0.01 | 86 | 1017.4 |
| 20260906091546 | 67 | 60 | 7.0 | 10.4 | 0.01 | 0.01 | 0.01 | 86 | 1017.5 |
| 20260906091025 | 67 | 55 | 7.0 | 10.4 | 0.01 | 0.01 | 0.01 | 85 | 1017.5 |
| 20260906090524 | 67 | 61 | 8.7 | 11.3 | 0.01 | 0.01 | 0.01 | 85 | 1017.5 |
| 20260906090046 | 68 | 49 | 8.7 | 12.2 | 0.01 | 0.01 | 0.01 | 84 | 1017.5 |
| 20260906085529 | 68 | 62 | 8.7 | 12.2 | 0.01 | 0.01 | 0.01 | 83 | 1017.3 |
| 20260906085025 | 69 | 32 | 7.8 | 11.3 | 0.01 | 0.01 | 0.01 | 82 | 1017.3 |
| 20260906084552 | 69 | 53 | 4.3 | 10.4 | 0.01 | 0.01 | 0.01 | 81 | 1017.3 |
| 20260906084025 | 69 | 18 | 5.2 | 13.0 | 0.01 | 0.01 | 0.01 | 81 | 1017.4 |
| 20260906083525 | 70 | 57 | 4.3 | 13.0 | 0.01 | 0.01 | 0.01 | 80 | 1017.3 |
| 20260906083049 | 71 | 14 | 5.2 | 13.0 | 0.00 | 0.00 | 0.00 | 78 | 1017.3 |
| 20260906082522 | 71 | 28 | 4.3 | 16.5 | 0.00 | 0.00 | 0.00 | 77 | 1017.3 |
| 20260906082033 | 72 | 39 | 8.7 | 16.5 | 0.00 | 0.00 | 0.00 | 75 | 1017.2 |
| 20260906081545 | 74 | 346 | 7.8 | 16.5 | 0.00 | 0.00 | 0.00 | 74 | 1017.4 |
| 20260906081024 | 74 | 352 | 0.9 | 18.2 | 0.00 | 0.00 | 0.00 | 74 | 1017.2 |
| 20260906080525 | 73 | 349 | 2.6 | 18.2 | 0.00 | 0.00 | 0.00 | 75 | 1017.2 |
| 20260906080045 | 73 | 277 | 8.7 | 18.2 | 0.00 | 0.00 | 0.00 | 77 | 1017.3 |
| 20260906075523 | 73 | 346 | 7.8 | 12.2 | 0.00 | 0.00 | 0.00 | 77 | 1017.3 |
| 20260906075024 | 73 | 332 | 1.7 | 8.7 | 0.00 | 0.00 | 0.00 | 75 | 1017.0 |
| 20260906074556 | 73 | 190 | 4.3 | 9.6 | 0.00 | 0.00 | 0.00 | 75 | 1016.5 |
| 20260906074024 | 73 | 165 | 6.1 | 13.0 | 0.00 | 0.00 | 0.00 | 75 | 1016.3 |
| 20260906073525 | 73 | 163 | 7.0 | 13.0 | 0.00 | 0.00 | 0.00 | 75 | 1016.0 |
| 20260906073050 | 73 | 161 | 7.0 | 13.0 | 0.00 | 0.00 | 0.00 | 75 | 1016.1 |
| 20260906072526 | 73 | 180 | 7.0 | 13.0 | 0.00 | 0.00 | 0.00 | 74 | 1016.0 |
| 20260906072024 | 73 | 173 | 7.8 | 13.0 | 0.00 | 0.00 | 0.00 | 74 | 1016.0 |
| 20260906071547 | 73 | 173 | 8.7 | 13.0 | 0.00 | 0.00 | 0.00 | 74 | 1016.1 |
| 20260906071024 | 74 | 161 | 8.7 | 13.0 | 0.00 | 0.00 | 0.00 | 73 | 1016.1 |
| 20260906070524 | 74 | 150 | 8.7 | 13.0 | 0.00 | 0.00 | 0.00 | 73 | 1016.2 |
| 20260906070053 | 74 | 159 | 8.7 | 13.0 | 0.00 | 0.00 | 0.00 | 73 | 1016.3 |
| 20260906065524 | 74 | 173 | 7.8 | 12.2 | 0.00 | 0.00 | 0.00 | 73 | 1016.3 |
| 20260906065025 | 74 | 151 | 7.0 | 10.4 | 0.00 | 0.00 | 0.00 | 73 | 1016.2 |
| 20260906064546 | 74 | 162 | 7.0 | 10.4 | 0.00 | 0.00 | 0.00 | 73 | 1016.2 |
| 20260906064028 | 74 | 161 | 6.1 | 10.4 | 0.00 | 0.00 | 0.00 | 72 | 1016.0 |
| 20260906063524 | 74 | 157 | 7.8 | 9.6 | 0.00 | 0.00 | 0.00 | 72 | 1016.1 |
| 20260906063050 | 74 | 155 | 6.1 | 9.6 | 0.00 | 0.00 | 0.00 | 72 | 1016.1 |
| 20260906062528 | 74 | 151 | 5.2 | 10.4 | 0.00 | 0.00 | 0.00 | 72 | 1016.2 |
| 20260906062023 | 74 | 159 | 7.0 | 13.0 | 0.00 | 0.00 | 0.00 | 72 | 1016.1 |
| 20260906061545 | 74 | 146 | 8.7 | 13.0 | 0.00 | 0.00 | 0.00 | 72 | 1016.0 |
| 20260906061025 | 74 | 169 | 9.6 | 13.9 | 0.00 | 0.00 | 0.00 | 72 | 1015.9 |
| 20260906060528 | 74 | 163 | 8.7 | 13.9 | 0.00 | 0.00 | 0.00 | 72 | 1015.7 |
| 20260906060054 | 74 | 169 | 7.8 | 13.0 | 0.00 | 0.00 | 0.00 | 72 | 1015.6 |
| 20260906055522 | 74 | 156 | 5.2 | 7.8 | 0.00 | 0.00 | 0.00 | 72 | 1015.6 |
| 20260906055024 | 74 | 140 | 5.2 | 7.8 | 0.00 | 0.00 | 0.00 | 72 | 1015.6 |
| 20260906054549 | 74 | 128 | 5.2 | 9.6 | 0.00 | 0.00 | 0.00 | 72 | 1015.5 |
| 20260906054025 | 74 | 138 | 6.1 | 9.6 | 0.00 | 0.00 | 0.00 | 72 | 1015.4 |
| 20260906053533 | 74 | 148 | 7.0 | 9.6 | 0.00 | 0.00 | 0.00 | 72 | 1015.4 |
| 20260906053043 | 74 | 155 | 7.0 | 10.4 | 0.00 | 0.00 | 0.00 | 72 | 1015.3 |
| 20260906052523 | 74 | 157 | 7.0 | 12.2 | 0.00 | 0.00 | 0.00 | 72 | 1015.3 |
| 20260906052026 | 74 | 152 | 7.0 | 12.2 | 0.00 | 0.00 | 0.00 | 72 | 1015.3 |
| 20260906051558 | 74 | 163 | 7.0 | 10.4 | 0.00 | 0.00 | 0.00 | 71 | 1015.3 |
| 20260906051027 | 74 | 146 | 7.0 | 10.4 | 0.00 | 0.00 | 0.00 | 71 | 1015.3 |
| 20260906050525 | 74 | 172 | 7.0 | 10.4 | 0.00 | 0.00 | 0.00 | 70 | 1015.3 |
| 20260906050056 | 74 | 154 | 7.8 | 10.4 | 0.00 | 0.00 | 0.00 | 70 | 1015.4 |
| 20260906045525 | 75 | 154 | 7.8 | 11.3 | 0.00 | 0.00 | 0.00 | 70 | 1015.6 |
| 20260906045023 | 75 | 160 | 7.8 | 11.3 | 0.00 | 0.00 | 0.00 | 70 | 1015.6 |
| 20260906044551 | 75 | 159 | 7.8 | 11.3 | 0.00 | 0.00 | 0.00 | 69 | 1015.7 |
| 20260906044025 | 75 | 178 | 7.8 | 13.9 | 0.00 | 0.00 | 0.00 | 69 | 1015.7 |
| 20260906043523 | 75 | 181 | 7.8 | 13.9 | 0.00 | 0.00 | 0.00 | 68 | 1015.7 |
| 20260906043051 | 76 | 168 | 9.6 | 13.9 | 0.00 | 0.00 | 0.00 | 68 | 1015.7 |
| 20260906042525 | 76 | 169 | 9.6 | 14.8 | 0.00 | 0.00 | 0.00 | 67 | 1015.7 |
| 20260906042024 | 76 | 165 | 9.6 | 14.8 | 0.00 | 0.00 | 0.00 | 67 | 1015.7 |
| 20260906041545 | 76 | 176 | 8.7 | 13.9 | 0.00 | 0.00 | 0.00 | 67 | 1015.7 |
| 20260906041028 | 76 | 176 | 9.6 | 13.9 | 0.00 | 0.00 | 0.00 | 67 | 1015.8 |
| 20260906040524 | 76 | 163 | 9.6 | 13.9 | 0.00 | 0.00 | 0.00 | 66 | 1015.8 |
| 20260906040056 | 77 | 159 | 8.7 | 16.5 | 0.00 | 0.00 | 0.00 | 66 | 1015.8 |
| 20260906035525 | 77 | 167 | 10.4 | 16.5 | 0.00 | 0.00 | 0.00 | 65 | 1015.8 |
| 20260906035025 | 77 | 182 | 10.4 | 16.5 | 0.00 | 0.00 | 0.00 | 65 | 1015.7 |
| 20260906034544 | 78 | 157 | 11.3 | 17.4 | 0.00 | 0.00 | 0.00 | 64 | 1015.8 |
| 20260906034024 | 78 | 157 | 12.2 | 17.4 | 0.00 | 0.00 | 0.00 | 64 | 1015.7 |
| 20260906033523 | 78 | 159 | 11.3 | 16.5 | 0.00 | 0.00 | 0.00 | 63 | 1015.7 |
| 20260906033052 | 78 | 163 | 11.3 | 16.5 | 0.00 | 0.00 | 0.00 | 63 | 1015.7 |
| 20260906032522 | 78 | 160 | 12.2 | 16.5 | 0.00 | 0.00 | 0.00 | 64 | 1015.8 |
| 20260906032023 | 78 | 146 | 8.7 | 12.2 | 0.00 | 0.00 | 0.00 | 63 | 1015.7 |
| 20260906031547 | 78 | 157 | 7.0 | 10.4 | 0.00 | 0.00 | 0.00 | 62 | 1015.7 |
| 20260906031024 | 78 | 142 | 7.8 | 10.4 | 0.00 | 0.00 | 0.00 | 62 | 1015.6 |
| 20260906030524 | 79 | 158 | 7.0 | 11.3 | 0.00 | 0.00 | 0.00 | 61 | 1015.5 |
| 20260906030046 | 79 | 175 | 7.8 | 11.3 | 0.00 | 0.00 | 0.00 | 60 | 1015.6 |
| 20260906025524 | 79 | 154 | 7.8 | 11.3 | 0.00 | 0.00 | 0.00 | 60 | 1015.6 |
| 20260906025024 | 80 | 136 | 7.8 | 11.3 | 0.00 | 0.00 | 0.00 | 60 | 1015.5 |
| 20260906024558 | 80 | 173 | 8.7 | 12.2 | 0.00 | 0.00 | 0.00 | 59 | 1015.3 |
| 20260906024023 | 80 | 166 | 8.7 | 12.2 | 0.00 | 0.00 | 0.00 | 59 | 1015.4 |
| 20260906023523 | 81 | 157 | 7.8 | 10.4 | 0.00 | 0.00 | 0.00 | 58 | 1015.4 |
| 20260906023046 | 81 | 164 | 8.7 | 11.3 | 0.00 | 0.00 | 0.00 | 57 | 1015.2 |
| 20260906022526 | 81 | 160 | 7.8 | 12.2 | 0.00 | 0.00 | 0.00 | 57 | 1015.1 |
| 20260906022025 | 82 | 160 | 8.7 | 12.2 | 0.00 | 0.00 | 0.00 | 56 | 1015.2 |
| 20260906021547 | 82 | 170 | 7.0 | 10.4 | 0.00 | 0.00 | 0.00 | 55 | 1015.1 |
| 20260906021023 | 82 | 158 | 7.8 | 12.2 | 0.00 | 0.00 | 0.00 | 55 | 1014.9 |
| 20260906020524 | 81 | 157 | 7.8 | 12.2 | 0.00 | 0.00 | 0.00 | 55 | 1014.8 |
| 20260906020052 | 81 | 150 | 6.1 | 8.7 | 0.00 | 0.00 | 0.00 | 55 | 1014.9 |
| 20260906015523 | 82 | 146 | 6.1 | 7.8 | 0.00 | 0.00 | 0.00 | 54 | 1014.8 |
| 20260906015023 | 82 | 138 | 5.2 | 7.0 | 0.00 | 0.00 | 0.00 | 53 | 1014.9 |
| 20260906014625 | 83 | 138 | 5.2 | 7.8 | 0.00 | 0.00 | 0.00 | 52 | 1014.9 |
| 20260906014022 | 84 | 137 | 4.3 | 7.8 | 0.00 | 0.00 | 0.00 | 51 | 1015.0 |
| 20260906013524 | 84 | 143 | 6.1 | 8.7 | 0.00 | 0.00 | 0.00 | 50 | 1015.0 |
| 20260906013049 | 85 | 148 | 5.2 | 8.7 | 0.00 | 0.00 | 0.00 | 50 | 1015.0 |
| 20260906012524 | 85 | 146 | 6.1 | 10.4 | 0.00 | 0.00 | 0.00 | 50 | 1015.0 |
| 20260906012023 | 85 | 143 | 7.0 | 11.3 | 0.00 | 0.00 | 0.00 | 49 | 1015.0 |
| 20260906011545 | 86 | 146 | 7.8 | 11.3 | 0.00 | 0.00 | 0.00 | 49 | 1015.0 |
| 20260906011024 | 86 | 144 | 5.2 | 10.4 | 0.00 | 0.00 | 0.00 | 48 | 1015.1 |
| 20260906010523 | 86 | 147 | 6.1 | 10.4 | 0.00 | 0.00 | 0.00 | 48 | 1015.1 |
| 20260906010054 | 87 | 130 | 7.0 | 10.4 | 0.00 | 0.00 | 0.00 | 47 | 1015.2 |
| 20260906005523 | 87 | 126 | 7.0 | 9.6 | 0.00 | 0.00 | 0.00 | 47 | 1015.0 |
| 20260906005025 | 87 | 140 | 6.1 | 12.2 | 0.00 | 0.00 | 0.00 | 46 | 1015.0 |
| 20260906004556 | 88 | 142 | 8.7 | 13.0 | 0.00 | 0.00 | 0.00 | 46 | 1014.9 |
| 20260906004025 | 88 | 145 | 9.6 | 16.5 | 0.00 | 0.00 | 0.00 | 46 | 1014.9 |
| 20260906003524 | 88 | 147 | 11.3 | 16.5 | 0.00 | 0.00 | 0.00 | 46 | 1014.6 |
| 20260906003059 | 88 | 142 | 9.6 | 15.6 | 0.00 | 0.00 | 0.00 | 46 | 1014.4 |
| 20260906002523 | 89 | 134 | 11.3 | 14.8 | 0.00 | 0.00 | 0.00 | 46 | 1014.3 |
| 20260906002025 | 89 | 130 | 10.4 | 18.2 | 0.00 | 0.00 | 0.00 | 46 | 1014.2 |
| 20260906001546 | 89 | 149 | 10.4 | 18.2 | 0.00 | 0.00 | 0.00 | 45 | 1014.1 |
| 20260906001023 | 89 | 150 | 12.2 | 15.6 | 0.00 | 0.00 | 0.00 | 45 | 1014.0 |
| 20260906000524 | 89 | 154 | 10.4 | 18.2 | 0.00 | 0.00 | 0.00 | 45 | 1014.0 |
| 20260906000052 | 89 | 149 | 12.2 | 18.2 | 0.00 | 0.00 | 0.00 | 44 | 1014.1 |
| 20260905235523 | 89 | 153 | 12.2 | 18.2 | 0.00 | 0.00 | 0.00 | 44 | 1014.1 |
| 20260905235027 | 89 | 164 | 13.9 | 20.0 | 0.00 | 0.00 | 0.00 | 43 | 1014.1 |
| 20260905234549 | 89 | 158 | 13.9 | 20.0 | 0.00 | 0.00 | 0.00 | 42 | 1014.2 |
| 20260905234026 | 90 | 160 | 14.8 | 20.0 | 0.00 | 0.00 | 0.00 | 41 | 1014.2 |
| 20260905233528 | 90 | 184 | 12.2 | 23.5 | 0.00 | 0.00 | 0.00 | 41 | 1014.0 |
| 20260905233049 | 90 | 166 | 16.5 | 24.3 | 0.00 | 0.00 | 0.00 | 40 | 1013.9 |
| 20260905232525 | 90 | 173 | 18.2 | 24.3 | 0.00 | 0.00 | 0.00 | 40 | 1013.9 |
| 20260905232024 | 91 | 175 | 14.8 | 25.2 | 0.00 | 0.00 | 0.00 | 38 | 1013.9 |
| 20260905231546 | 91 | 154 | 19.1 | 25.2 | 0.00 | 0.00 | 0.00 | 38 | 1013.9 |
| 20260905231024 | 91 | 162 | 15.6 | 26.9 | 0.00 | 0.00 | 0.00 | 37 | 1013.9 |
| 20260905230523 | 91 | 151 | 18.2 | 26.9 | 0.00 | 0.00 | 0.00 | 38 | 1013.8 |
| 20260905230054 | 91 | 172 | 16.5 | 24.3 | 0.00 | 0.00 | 0.00 | 38 | 1013.7 |
| 20260905225523 | 91 | 144 | 17.4 | 25.2 | 0.00 | 0.00 | 0.00 | 39 | 1013.7 |
| 20260905225024 | 92 | 145 | 15.6 | 25.2 | 0.00 | 0.00 | 0.00 | 38 | 1013.7 |
| 20260905224546 | 92 | 165 | 16.5 | 23.5 | 0.00 | 0.00 | 0.00 | 38 | 1013.8 |
| 20260905224024 | 91 | 159 | 16.5 | 24.3 | 0.00 | 0.00 | 0.00 | 38 | 1013.8 |
| 20260905223525 | 92 | 164 | 14.8 | 26.1 | 0.00 | 0.00 | 0.00 | 39 | 1013.8 |
| 20260905223046 | 91 | 164 | 17.4 | 26.1 | 0.00 | 0.00 | 0.00 | 39 | 1013.8 |
| 20260905222524 | 91 | 135 | 15.6 | 25.2 | 0.00 | 0.00 | 0.00 | 39 | 1013.8 |
| 20260905222021 | 91 | 169 | 18.2 | 25.2 | 0.00 | 0.00 | 0.00 | 39 | 1013.7 |
| 20260905221611 | 91 | 156 | 19.1 | 26.1 | 0.00 | 0.00 | 0.00 | 40 | 1013.7 |
| 20260905221024 | 91 | 151 | 19.1 | 26.1 | 0.00 | 0.00 | 0.00 | 41 | 1013.8 |
| 20260905220523 | 91 | 150 | 18.2 | 26.1 | 0.00 | 0.00 | 0.00 | 42 | 1013.8 |
| 20260905220051 | 91 | 159 | 16.5 | 26.9 | 0.00 | 0.00 | 0.00 | 43 | 1013.9 |
| 20260905215524 | 91 | 154 | 18.2 | 26.9 | 0.00 | 0.00 | 0.00 | 42 | 1014.0 |
| 20260905215025 | 91 | 157 | 17.4 | 23.5 | 0.00 | 0.00 | 0.00 | 42 | 1014.0 |
| 20260905214548 | 91 | 159 | 14.8 | 26.1 | 0.00 | 0.00 | 0.00 | 41 | 1014.0 |
| 20260905214024 | 91 | 178 | 16.5 | 26.1 | 0.00 | 0.00 | 0.00 | 41 | 1014.1 |
| 20260905213522 | 91 | 149 | 18.2 | 28.7 | 0.00 | 0.00 | 0.00 | 40 | 1014.2 |
| 20260905213104 | 91 | 224 | 18.2 | 28.7 | 0.00 | 0.00 | 0.00 | 42 | 1014.3 |
| 20260905212524 | 91 | 164 | 18.2 | 25.2 | 0.00 | 0.00 | 0.00 | 42 | 1014.4 |
| 20260905212025 | 91 | 156 | 15.6 | 24.3 | 0.00 | 0.00 | 0.00 | 42 | 1014.5 |
| 20260905211547 | 92 | 360 | 17.4 | 24.3 | 0.00 | 0.00 | 0.00 | 41 | 1014.5 |
| 20260905211024 | 93 | 360 | 19.1 | 24.3 | 0.00 | 0.00 | 0.00 | 39 | 1014.6 |
| 20260905210525 | 93 | 360 | 16.5 | 26.1 | 0.00 | 0.00 | 0.00 | 40 | 1014.4 |
| 20260905210051 | 94 | 148 | 18.2 | 27.8 | 0.00 | 0.00 | 0.00 | 39 | 1014.5 |
| 20260905205526 | 94 | 159 | 16.5 | 27.8 | 0.00 | 0.00 | 0.00 | 40 | 1014.4 |
| 20260905205026 | 94 | 165 | 19.1 | 26.1 | 0.00 | 0.00 | 0.00 | 39 | 1014.6 |